Location: Peebles
(55.6412°N, 3.1714°W)
Time: 22:47:20
(UTC+00:00)

A-11 Canister half - Pass Details

Date: 06 October 2023
Orbit: 1525 x 1684 km, 47.3° (Epoch: 02 December)

Event Time Altitude Azimuth Distance (km) Brightness Sun altitude
Rises 19:11:08 0° 282° (WNW) 4,711 13.6 -5.8°
Reaches altitude 10° 19:15:02 10° 269° (W) 3,744 12.9 -6.3°
Maximum altitude 19:21:40 22° 223° (SW) 2,939 11.1 -7.3°
Drops below altitude 10° 19:28:28 10° 178° (S) 3,821 11.0 -8.2°
Sets 19:32:31 0° 164° (SSE) 4,831 11.4 -8.8°
